Time,TemperatureF,DewpointF,PressureIn,WindDirection,WindDirectionDegrees,WindSpeedMPH,WindSpeedGustMPH,Humidity,HourlyPrecipIn,Conditions,Clouds,dailyrainin,SoftwareType,DateUTC
2013-06-25 00:01:00,67.3,62.0,30.01,WSW,248,0.4,1.8,83,0.00,,,0.02,WUHU216HW,2013-06-25 04:01:00,
2013-06-25 00:06:00,67.3,62.0,30.01,WSW,248,0.4,1.8,83,0.00,,,0.00,WUHU216HW,2013-06-25 04:06:00,
2013-06-25 00:11:00,67.1,61.8,30.01,WSW,248,0.0,0.4,83,0.00,,,0.00,WUHU216HW,2013-06-25 04:11:00,
2013-06-25 00:16:00,67.1,61.8,30.01,WSW,248,0.0,0.7,83,0.00,,,0.00,WUHU216HW,2013-06-25 04:16:00,
2013-06-25 00:21:00,67.0,61.7,30.01,WSW,248,0.0,0.7,83,0.00,,,0.00,WUHU216HW,2013-06-25 04:21:00,
2013-06-25 00:26:00,67.0,61.9,30.00,WSW,248,0.0,0.0,84,0.00,,,0.00,WUHU216HW,2013-06-25 04:26:00,
2013-06-25 00:31:00,67.0,61.7,30.00,WSW,248,0.0,0.0,83,0.00,,,0.00,WUHU216HW,2013-06-25 04:31:00,
2013-06-25 00:36:00,67.0,61.7,30.00,WSW,248,0.0,0.0,83,0.00,,,0.00,WUHU216HW,2013-06-25 04:36:00,
2013-06-25 00:41:00,67.0,61.7,30.00,WSW,248,0.2,0.2,83,0.00,,,0.00,WUHU216HW,2013-06-25 04:41:00,
2013-06-25 00:46:00,66.8,61.5,29.99,WSW,248,0.0,0.7,83,0.00,,,0.00,WUHU216HW,2013-06-25 04:46:00,
2013-06-25 00:51:00,66.8,61.5,29.99,WSW,248,0.7,1.1,83,0.00,,,0.00,WUHU216HW,2013-06-25 04:51:00,
2013-06-25 00:56:00,66.8,61.5,29.99,WSW,248,0.3,1.1,83,0.00,,,0.00,WUHU216HW,2013-06-25 04:56:00,
2013-06-25 01:01:00,66.8,61.5,29.99,WSW,248,0.0,0.9,83,0.00,,,0.00,WUHU216HW,2013-06-25 05:01:00,
2013-06-25 01:06:00,66.6,61.3,29.99,WSW,248,0.0,0.0,83,0.00,,,0.00,WUHU216HW,2013-06-25 05:06:00,
2013-06-25 01:11:00,66.6,61.3,29.99,WSW,248,0.0,0.4,83,0.00,,,0.00,WUHU216HW,2013-06-25 05:11:00,
2013-06-25 01:16:00,66.6,61.6,29.99,WSW,248,0.0,0.4,84,0.00,,,0.00,WUHU216HW,2013-06-25 05:16:00,
2013-06-25 01:21:00,66.6,61.6,29.99,WSW,248,1.0,1.1,84,0.00,,,0.00,WUHU216HW,2013-06-25 05:21:00,
2013-06-25 01:26:00,66.4,61.4,29.99,WSW,248,0.0,1.3,84,0.00,,,0.00,WUHU216HW,2013-06-25 05:26:00,
2013-06-25 01:31:00,66.4,61.4,29.99,WSW,248,0.0,1.3,84,0.00,,,0.00,WUHU216HW,2013-06-25 05:31:00,
2013-06-25 01:36:00,66.2,61.2,29.98,WSW,248,0.0,1.1,84,0.00,,,0.00,WUHU216HW,2013-06-25 05:36:00,
2013-06-25 01:41:00,66.2,61.2,29.98,WSW,248,0.0,0.4,84,0.00,,,0.00,WUHU216HW,2013-06-25 05:41:00,
2013-06-25 01:46:00,66.2,61.2,29.98,WSW,248,0.0,0.0,84,0.00,,,0.00,WUHU216HW,2013-06-25 05:46:00,
2013-06-25 01:51:00,66.2,61.2,29.98,WSW,248,0.0,0.0,84,0.00,,,0.00,WUHU216HW,2013-06-25 05:51:00,
2013-06-25 01:56:00,66.2,61.2,29.98,WSW,248,0.0,0.0,84,0.00,,,0.00,WUHU216HW,2013-06-25 05:56:00,
2013-06-25 02:01:00,66.2,61.2,29.98,WSW,248,0.4,0.4,84,0.00,,,0.00,WUHU216HW,2013-06-25 06:01:00,
2013-06-25 02:06:00,66.2,61.2,29.97,WSW,248,2.2,2.2,84,0.00,,,0.00,WUHU216HW,2013-06-25 06:06:00,
2013-06-25 02:11:00,66.4,61.4,29.97,WSW,248,0.4,2.2,84,0.00,,,0.00,WUHU216HW,2013-06-25 06:11:00,
2013-06-25 02:16:00,66.4,61.4,29.96,WSW,248,0.2,1.1,84,0.00,,,0.00,WUHU216HW,2013-06-25 06:16:00,
2013-06-25 02:21:00,66.4,61.7,29.96,SSW,203,0.0,0.9,85,0.00,,,0.00,WUHU216HW,2013-06-25 06:21:00,
2013-06-25 02:26:00,66.4,61.7,29.96,SSW,203,0.0,0.0,85,0.00,,,0.00,WUHU216HW,2013-06-25 06:26:00,
2013-06-25 02:31:00,66.2,61.6,29.96,SE,135,1.6,1.6,85,0.00,,,0.00,WUHU216HW,2013-06-25 06:31:00,
2013-06-25 02:36:00,66.4,62.1,29.96,SE,135,0.0,1.6,86,0.00,,,0.00,WUHU216HW,2013-06-25 06:36:00,
2013-06-25 02:41:00,66.4,62.1,29.96,SE,135,0.7,0.7,86,0.00,,,0.00,WUHU216HW,2013-06-25 06:41:00,
2013-06-25 02:46:00,66.6,61.9,29.96,SW,230,0.8,1.3,85,0.00,,,0.00,WUHU216HW,2013-06-25 06:46:00,
2013-06-25 02:51:00,66.4,62.1,29.96,ESE,113,0.7,1.3,86,0.00,,,0.00,WUHU216HW,2013-06-25 06:51:00,
2013-06-25 02:56:00,66.2,61.9,29.96,ENE,68,0.0,1.1,86,0.00,,,0.00,WUHU216HW,2013-06-25 06:56:00,
2013-06-25 03:01:00,66.1,61.8,29.96,ENE,68,0.0,1.1,86,0.00,,,0.00,WUHU216HW,2013-06-25 07:01:00,
2013-06-25 03:06:00,65.9,61.6,29.96,ENE,68,0.0,0.9,86,0.00,,,0.00,WUHU216HW,2013-06-25 07:06:00,
2013-06-25 03:11:00,65.9,61.6,29.96,ENE,68,0.0,0.2,86,0.00,,,0.00,WUHU216HW,2013-06-25 07:11:00,
2013-06-25 03:16:00,65.7,61.4,29.96,ENE,68,0.0,0.0,86,0.00,,,0.00,WUHU216HW,2013-06-25 07:16:00,
2013-06-25 03:21:00,65.5,61.2,29.96,ENE,68,0.2,0.2,86,0.00,,,0.00,WUHU216HW,2013-06-25 07:21:00,
2013-06-25 03:26:00,65.5,61.2,29.96,ENE,68,0.4,0.4,86,0.00,,,0.00,WUHU216HW,2013-06-25 07:26:00,
2013-06-25 03:31:00,65.5,61.2,29.97,ENE,68,0.0,0.4,86,0.00,,,0.00,WUHU216HW,2013-06-25 07:31:00,
2013-06-25 03:36:00,65.5,61.2,29.96,ENE,68,0.0,0.0,86,0.00,,,0.00,WUHU216HW,2013-06-25 07:36:00,
2013-06-25 03:41:00,65.3,61.0,29.96,ENE,68,0.0,0.0,86,0.00,,,0.00,WUHU216HW,2013-06-25 07:41:00,
2013-06-25 03:46:00,65.2,60.6,29.96,ENE,68,1.1,1.1,85,0.00,,,0.00,WUHU216HW,2013-06-25 07:46:00,
2013-06-25 03:51:00,64.8,60.6,29.96,ENE,68,0.2,1.1,86,0.00,,,0.00,WUHU216HW,2013-06-25 07:51:00,
2013-06-25 03:56:00,64.6,60.4,29.96,ENE,68,0.0,0.7,86,0.00,,,0.00,WUHU216HW,2013-06-25 07:56:00,
2013-06-25 04:01:00,65.0,60.7,29.96,ENE,68,0.0,0.2,86,0.00,,,0.00,WUHU216HW,2013-06-25 08:01:00,
2013-06-25 04:06:00,65.2,60.8,29.96,ENE,68,0.0,0.0,86,0.00,,,0.00,WUHU216HW,2013-06-25 08:06:00,
2013-06-25 04:11:00,65.2,60.8,29.96,NNE,23,0.0,0.9,86,0.00,,,0.00,WUHU216HW,2013-06-25 08:11:00,
2013-06-25 04:16:00,65.2,61.2,29.96,NNE,23,0.0,0.9,87,0.00,,,0.00,WUHU216HW,2013-06-25 08:16:00,
2013-06-25 04:21:00,65.2,60.8,29.96,NNE,23,0.0,0.0,86,0.00,,,0.00,WUHU216HW,2013-06-25 08:21:00,
2013-06-25 04:26:00,65.3,61.0,29.96,NNE,23,0.0,0.0,86,0.00,,,0.00,WUHU216HW,2013-06-25 08:26:00,
2013-06-25 04:31:00,65.2,60.8,29.96,NNE,23,0.0,0.0,86,0.00,,,0.00,WUHU216HW,2013-06-25 08:31:00,
2013-06-25 04:36:00,65.2,60.6,29.96,NNE,23,0.0,0.2,85,0.00,,,0.00,WUHU216HW,2013-06-25 08:36:00,
2013-06-25 04:41:00,65.2,60.6,29.96,NNE,23,0.0,0.2,85,0.00,,,0.00,WUHU216HW,2013-06-25 08:41:00,
2013-06-25 04:46:00,65.0,60.4,29.96,NNE,23,0.0,0.0,85,0.00,,,0.00,WUHU216HW,2013-06-25 08:46:00,
2013-06-25 04:51:00,65.0,60.4,29.96,NNE,23,0.0,0.0,85,0.00,,,0.00,WUHU216HW,2013-06-25 08:51:00,
2013-06-25 04:56:00,64.8,60.2,29.96,NNE,23,0.0,0.0,85,0.00,,,0.00,WUHU216HW,2013-06-25 08:56:00,
2013-06-25 05:01:00,64.8,60.2,29.96,NNE,23,0.0,0.0,85,0.00,,,0.00,WUHU216HW,2013-06-25 09:01:00,
2013-06-25 05:06:00,64.6,60.0,29.96,North,0,0.2,0.2,85,0.00,,,0.00,WUHU216HW,2013-06-25 09:06:00,
2013-06-25 05:11:00,64.8,60.2,29.96,North,0,0.0,0.2,85,0.00,,,0.00,WUHU216HW,2013-06-25 09:11:00,
2013-06-25 05:16:00,64.8,60.2,29.96,North,0,0.0,0.0,85,0.00,,,0.00,WUHU216HW,2013-06-25 09:16:00,
2013-06-25 05:21:00,64.8,60.2,29.96,North,0,0.0,0.0,85,0.00,,,0.00,WUHU216HW,2013-06-25 09:21:00,
2013-06-25 05:26:00,65.0,60.4,29.96,North,0,0.0,0.0,85,0.00,,,0.00,WUHU216HW,2013-06-25 09:26:00,
2013-06-25 05:31:00,65.0,60.4,29.96,North,0,0.0,0.0,85,0.00,,,0.00,WUHU216HW,2013-06-25 09:31:00,
2013-06-25 05:36:00,64.8,60.2,29.96,NNW,338,0.2,0.2,85,0.00,,,0.00,WUHU216HW,2013-06-25 09:36:00,
2013-06-25 05:41:00,65.0,60.7,29.96,NNW,338,0.2,0.2,86,0.00,,,0.00,WUHU216HW,2013-06-25 09:41:00,
2013-06-25 05:46:00,65.0,60.7,29.96,WNW,293,0.9,1.1,86,0.00,,,0.00,WUHU216HW,2013-06-25 09:46:00,
2013-06-25 05:51:00,64.8,60.8,29.96,WNW,293,0.9,1.1,87,0.00,,,0.00,WUHU216HW,2013-06-25 09:51:00,
2013-06-25 05:56:00,64.8,60.6,29.96,WNW,293,0.7,0.9,86,0.00,,,0.00,WUHU216HW,2013-06-25 09:56:00,
2013-06-25 06:01:00,64.8,60.6,29.95,WNW,293,0.7,0.7,86,0.00,,,0.00,WUHU216HW,2013-06-25 10:01:00,
2013-06-25 06:06:00,64.8,60.6,29.95,WNW,293,0.0,0.7,86,0.00,,,0.00,WUHU216HW,2013-06-25 10:06:00,
2013-06-25 06:11:00,64.8,60.6,29.95,WNW,293,0.0,0.0,86,0.00,,,0.00,WUHU216HW,2013-06-25 10:11:00,
2013-06-25 06:16:00,65.0,60.7,29.96,WNW,293,0.0,0.4,86,0.00,,,0.00,WUHU216HW,2013-06-25 10:16:00,
2013-06-25 06:21:00,65.2,60.8,29.95,WNW,293,0.0,0.4,86,0.00,,,0.00,WUHU216HW,2013-06-25 10:21:00,
2013-06-25 06:26:00,65.2,60.8,29.95,WSW,248,0.0,0.4,86,0.00,,,0.00,WUHU216HW,2013-06-25 10:26:00,
2013-06-25 06:31:00,65.0,60.7,29.95,South,180,1.1,1.1,86,0.00,,,0.00,WUHU216HW,2013-06-25 10:31:00,
2013-06-25 06:36:00,65.0,60.7,29.95,South,180,0.0,1.1,86,0.00,,,0.00,WUHU216HW,2013-06-25 10:36:00,
2013-06-25 06:41:00,65.2,60.8,29.95,South,180,0.0,0.2,86,0.00,,,0.00,WUHU216HW,2013-06-25 10:41:00,
2013-06-25 06:46:00,65.2,60.6,29.95,South,180,0.9,0.9,85,0.00,,,0.00,WUHU216HW,2013-06-25 10:46:00,
2013-06-25 06:51:00,65.2,60.6,29.95,South,180,0.9,0.9,85,0.00,,,0.00,WUHU216HW,2013-06-25 10:51:00,
2013-06-25 06:56:00,65.3,61.0,29.95,South,180,0.4,0.9,86,0.00,,,0.00,WUHU216HW,2013-06-25 10:56:00,
2013-06-25 07:01:00,65.5,61.2,29.95,SSE,158,1.0,1.1,86,0.00,,,0.00,WUHU216HW,2013-06-25 11:01:00,
2013-06-25 07:06:00,65.5,61.2,29.95,SSE,158,0.0,1.1,86,0.00,,,0.00,WUHU216HW,2013-06-25 11:06:00,
2013-06-25 07:11:00,65.5,61.2,29.95,SSE,158,0.9,1.1,86,0.00,,,0.00,WUHU216HW,2013-06-25 11:11:00,
2013-06-25 07:16:00,65.5,61.2,29.95,SSE,158,0.0,0.9,86,0.00,,,0.00,WUHU216HW,2013-06-25 11:16:00,
2013-06-25 07:21:00,65.7,61.4,29.95,SSE,158,0.0,0.4,86,0.00,,,0.00,WUHU216HW,2013-06-25 11:21:00,
2013-06-25 07:26:00,66.1,62.0,29.95,SE,135,0.4,0.4,87,0.00,,,0.00,WUHU216HW,2013-06-25 11:26:00,
2013-06-25 07:31:00,66.4,62.4,29.95,SE,135,0.4,0.4,87,0.00,,,0.00,WUHU216HW,2013-06-25 11:31:00,
2013-06-25 07:36:00,66.6,62.3,29.94,SE,135,0.0,1.1,86,0.00,,,0.00,WUHU216HW,2013-06-25 11:36:00,
2013-06-25 07:41:00,67.0,62.7,29.94,SE,135,0.6,1.1,86,0.00,,,0.00,WUHU216HW,2013-06-25 11:41:00,
2013-06-25 07:46:00,67.3,63.0,29.94,SE,135,0.0,0.9,86,0.00,,,0.00,WUHU216HW,2013-06-25 11:46:00,
2013-06-25 07:51:00,67.5,63.2,29.94,SE,135,0.0,0.2,86,0.00,,,0.00,WUHU216HW,2013-06-25 11:51:00,
2013-06-25 07:56:00,67.7,63.0,29.94,SSW,203,0.4,0.4,85,0.00,,,0.00,WUHU216HW,2013-06-25 11:56:00,
2013-06-25 08:01:00,68.0,63.4,29.95,SSW,203,0.0,0.4,85,0.00,,,0.00,WUHU216HW,2013-06-25 12:01:00,
2013-06-25 08:06:00,68.2,63.6,29.95,SSW,203,0.0,0.9,85,0.00,,,0.00,WUHU216HW,2013-06-25 12:06:00,
2013-06-25 08:11:00,68.2,63.6,29.95,SSW,203,0.0,0.9,85,0.00,,,0.00,WUHU216HW,2013-06-25 12:11:00,
2013-06-25 08:16:00,68.2,63.6,29.95,SSW,203,0.0,0.2,85,0.00,,,0.00,WUHU216HW,2013-06-25 12:16:00,
2013-06-25 08:21:00,68.4,63.7,29.95,SSW,203,0.0,0.2,85,0.00,,,0.00,WUHU216HW,2013-06-25 12:21:00,
2013-06-25 08:26:00,68.8,63.7,29.94,SSW,203,0.0,0.0,84,0.00,,,0.00,WUHU216HW,2013-06-25 12:26:00,
2013-06-25 08:31:00,69.1,63.7,29.94,WSW,248,0.7,1.3,83,0.00,,,0.00,WUHU216HW,2013-06-25 12:31:00,
2013-06-25 08:36:00,69.7,63.9,29.94,SSW,203,0.4,1.3,82,0.00,,,0.00,WUHU216HW,2013-06-25 12:36:00,
2013-06-25 08:41:00,70.2,64.5,29.94,WSW,248,0.4,0.9,82,0.00,,,0.00,WUHU216HW,2013-06-25 12:41:00,
2013-06-25 08:46:00,70.4,64.6,29.94,WSW,248,0.0,0.9,82,0.00,,,0.00,WUHU216HW,2013-06-25 12:46:00,
2013-06-25 08:51:00,70.6,65.1,29.94,WSW,248,0.0,0.9,83,0.00,,,0.00,WUHU216HW,2013-06-25 12:51:00,
2013-06-25 08:56:00,70.7,65.0,29.94,SW,225,0.4,0.9,82,0.00,,,0.00,WUHU216HW,2013-06-25 12:56:00,
2013-06-25 09:10:00,72.0,65.5,29.94,West,270,0.9,0.9,80,0.00,,,0.00,WUHU216HW,2013-06-25 13:10:00,
2013-06-25 09:15:00,72.2,65.4,29.93,West,270,0.6,0.9,79,0.00,,,0.00,WUHU216HW,2013-06-25 13:15:00,
2013-06-25 09:20:00,72.4,65.5,29.94,West,270,0.0,1.1,79,0.00,,,0.00,WUHU216HW,2013-06-25 13:20:00,
2013-06-25 09:25:00,72.7,66.2,29.94,NNW,338,0.0,1.1,80,0.00,,,0.00,WUHU216HW,2013-06-25 13:25:00,
2013-06-25 09:30:00,73.1,66.6,29.94,SSW,203,0.6,1.1,80,0.00,,,0.00,WUHU216HW,2013-06-25 13:30:00,
2013-06-25 09:35:00,73.6,66.8,29.94,SSW,203,1.3,1.3,79,0.00,,,0.00,WUHU216HW,2013-06-25 13:35:00,
2013-06-25 09:40:00,74.0,66.7,29.94,SSE,158,1.8,1.8,78,0.00,,,0.00,WUHU216HW,2013-06-25 13:40:00,
2013-06-25 09:45:00,74.3,66.3,29.93,South,180,2.2,2.5,76,0.00,,,0.00,WUHU216HW,2013-06-25 13:45:00,
2013-06-25 09:50:00,74.7,66.2,29.94,SSW,203,1.6,3.1,75,0.00,,,0.00,WUHU216HW,2013-06-25 13:50:00,
2013-06-25 09:55:00,75.1,67.0,29.94,SW,230,0.8,3.1,76,0.00,,,0.00,WUHU216HW,2013-06-25 13:55:00,
2013-06-25 10:00:00,75.4,67.0,29.94,SSW,193,2.3,2.7,75,0.00,,,0.00,WUHU216HW,2013-06-25 14:00:00,
2013-06-25 10:05:00,75.8,66.9,29.94,SSW,213,1.9,2.7,74,0.00,,,0.00,WUHU216HW,2013-06-25 14:05:00,
2013-06-25 10:10:00,76.1,67.2,29.94,West,270,1.1,2.5,74,0.00,,,0.00,WUHU216HW,2013-06-25 14:10:00,
2013-06-25 10:15:00,76.5,67.6,29.94,SSW,203,1.5,1.6,74,0.00,,,0.00,WUHU216HW,2013-06-25 14:15:00,
2013-06-25 10:20:00,76.9,67.6,29.94,SW,217,1.0,2.2,73,0.00,,,0.00,WUHU216HW,2013-06-25 14:20:00,
2013-06-25 10:25:00,77.4,67.7,29.94,South,169,1.2,3.4,72,0.00,,,0.00,WUHU216HW,2013-06-25 14:25:00,
2013-06-25 10:30:00,77.8,68.1,29.94,SW,225,1.1,3.4,72,0.00,,,0.00,WUHU216HW,2013-06-25 14:30:00,
2013-06-25 10:35:00,78.5,69.0,29.94,WNW,293,0.7,1.1,73,0.00,,,0.00,WUHU216HW,2013-06-25 14:35:00,
2013-06-25 10:40:00,78.5,68.3,29.94,SW,225,0.9,2.5,71,0.00,,,0.00,WUHU216HW,2013-06-25 14:40:00,
2013-06-25 10:45:00,79.0,68.8,29.94,SSW,203,1.1,2.5,71,0.00,,,0.00,WUHU216HW,2013-06-25 14:45:00,
2013-06-25 10:50:00,79.2,68.6,29.94,South,189,1.5,1.8,70,0.00,,,0.00,WUHU216HW,2013-06-25 14:50:00,
2013-06-25 10:55:00,79.6,68.9,29.94,WSW,248,2.2,2.5,70,0.00,,,0.00,WUHU216HW,2013-06-25 14:55:00,
2013-06-25 11:00:00,79.6,68.9,29.94,WSW,248,0.0,2.5,70,0.00,,,0.00,WUHU216HW,2013-06-25 15:00:00,
2013-06-25 11:05:00,79.2,68.1,29.94,SSW,203,1.1,1.1,69,0.00,,,0.00,WUHU216HW,2013-06-25 15:05:00,
2013-06-25 11:10:00,79.2,68.9,29.94,SW,225,0.4,2.0,71,0.00,,,0.00,WUHU216HW,2013-06-25 15:10:00,
2013-06-25 11:15:00,79.6,68.5,29.93,SSE,158,1.1,2.0,69,0.00,,,0.00,WUHU216HW,2013-06-25 15:15:00,
2013-06-25 11:20:00,80.5,69.8,29.93,WSW,248,1.1,1.8,70,0.00,,,0.00,WUHU216HW,2013-06-25 15:20:00,
2013-06-25 11:25:00,80.8,68.9,29.93,South,180,1.5,2.2,67,0.00,,,0.00,WUHU216HW,2013-06-25 15:25:00,
2013-06-25 11:30:00,81.2,68.7,29.93,SW,234,2.1,2.5,66,0.00,,,0.00,WUHU216HW,2013-06-25 15:30:00,
2013-06-25 11:35:00,81.5,69.0,29.93,SSW,203,1.1,2.5,66,0.00,,,0.00,WUHU216HW,2013-06-25 15:35:00,
2013-06-25 11:40:00,82.1,69.9,29.93,SSW,203,1.3,2.0,67,0.00,,,0.00,WUHU216HW,2013-06-25 15:40:00,
2013-06-25 11:45:00,82.6,69.6,29.93,West,270,2.9,2.9,65,0.00,,,0.00,WUHU216HW,2013-06-25 15:45:00,
2013-06-25 11:50:00,82.6,70.5,29.93,SW,218,0.3,3.6,67,0.00,,,0.00,WUHU216HW,2013-06-25 15:50:00,
2013-06-25 11:55:00,82.8,68.9,29.93,South,174,2.1,3.6,63,0.00,,,0.00,WUHU216HW,2013-06-25 15:55:00,
2013-06-25 12:00:00,83.2,70.6,29.93,WNW,288,1.2,3.1,66,0.00,,,0.00,WUHU216HW,2013-06-25 16:00:00,
2013-06-25 12:05:00,83.7,70.2,29.92,South,191,2.1,3.1,64,0.00,,,0.00,WUHU216HW,2013-06-25 16:05:00,
2013-06-25 12:10:00,83.9,70.4,29.92,South,180,1.8,3.1,64,0.00,,,0.00,WUHU216HW,2013-06-25 16:10:00,
2013-06-25 12:15:00,84.2,70.3,29.92,SSE,158,4.0,4.0,63,0.00,,,0.00,WUHU216HW,2013-06-25 16:15:00,
2013-06-25 12:20:00,83.9,69.5,29.92,South,181,1.3,4.0,62,0.00,,,0.00,WUHU216HW,2013-06-25 16:20:00,
2013-06-25 12:25:00,83.5,69.6,29.91,SE,135,1.3,2.2,63,0.00,,,0.00,WUHU216HW,2013-06-25 16:25:00,
2013-06-25 12:30:00,84.2,70.3,29.91,SSW,192,1.3,1.8,63,0.00,,,0.00,WUHU216HW,2013-06-25 16:30:00,
2013-06-25 12:35:00,84.4,70.9,29.91,SSW,203,1.6,1.8,64,0.00,,,0.00,WUHU216HW,2013-06-25 16:35:00,
2013-06-25 12:40:00,83.7,69.3,29.91,SSE,158,1.2,1.8,62,0.00,,,0.00,WUHU216HW,2013-06-25 16:40:00,
2013-06-25 12:45:00,84.6,69.3,29.91,SSW,207,3.0,3.6,60,0.00,,,0.00,WUHU216HW,2013-06-25 16:45:00,
2013-06-25 12:50:00,84.6,67.7,29.90,SSW,203,2.5,3.6,57,0.00,,,0.00,WUHU216HW,2013-06-25 16:50:00,
2013-06-25 12:55:00,84.8,67.3,29.90,SW,228,3.3,3.4,56,0.00,,,0.00,WUHU216HW,2013-06-25 16:55:00,
2013-06-25 13:00:00,85.3,67.9,29.91,SW,219,3.8,4.3,56,0.00,,,0.00,WUHU216HW,2013-06-25 17:00:00,
2013-06-25 13:05:00,85.1,67.7,29.90,ESE,120,2.0,4.3,56,0.00,,,0.00,WUHU216HW,2013-06-25 17:05:00,
2013-06-25 13:10:00,85.7,67.2,29.90,SSW,203,3.6,4.3,54,0.00,,,0.00,WUHU216HW,2013-06-25 17:10:00,
2013-06-25 13:15:00,85.7,66.1,29.89,SE,135,5.4,5.4,52,0.00,,,0.00,WUHU216HW,2013-06-25 17:15:00,
2013-06-25 13:20:00,85.5,66.4,29.89,SSE,168,3.3,5.4,53,0.00,,,0.00,WUHU216HW,2013-06-25 17:20:00,
2013-06-25 13:25:00,85.5,67.0,29.89,NW,315,2.5,5.4,54,0.00,,,0.00,WUHU216HW,2013-06-25 17:25:00,
2013-06-25 13:30:00,85.5,67.0,29.89,SSW,203,3.4,4.0,54,0.00,,,0.00,WUHU216HW,2013-06-25 17:30:00,
2013-06-25 13:35:00,85.3,67.9,29.88,South,180,1.8,4.5,56,0.00,,,0.00,WUHU216HW,2013-06-25 17:35:00,
2013-06-25 13:40:00,85.5,67.0,29.88,SSW,202,2.6,4.5,54,0.00,,,0.00,WUHU216HW,2013-06-25 17:40:00,
2013-06-25 13:45:00,85.3,66.2,29.88,SSW,195,3.0,4.0,53,0.00,,,0.00,WUHU216HW,2013-06-25 17:45:00,
2013-06-25 13:50:00,85.5,68.0,29.88,SSW,206,2.3,4.0,56,0.00,,,0.00,WUHU216HW,2013-06-25 17:50:00,
2013-06-25 13:55:00,85.3,67.3,29.87,SSW,199,3.2,4.3,55,0.00,,,0.00,WUHU216HW,2013-06-25 17:55:00,
2013-06-25 14:00:00,85.3,67.3,29.87,West,278,3.0,4.3,55,0.00,,,0.00,WUHU216HW,2013-06-25 18:00:00,
2013-06-25 14:05:00,85.3,67.3,29.87,SSW,203,3.8,4.9,55,0.00,,,0.00,WUHU216HW,2013-06-25 18:05:00,
2013-06-25 14:10:00,85.5,67.5,29.87,SSW,195,1.7,4.9,55,0.00,,,0.00,WUHU216HW,2013-06-25 18:10:00,
2013-06-25 14:15:00,86.0,68.0,29.86,SSW,195,2.8,4.0,55,0.00,,,0.00,WUHU216HW,2013-06-25 18:15:00,
2013-06-25 14:20:00,86.0,68.0,29.86,South,180,4.7,4.7,55,0.00,,,0.00,WUHU216HW,2013-06-25 18:20:00,
2013-06-25 14:25:00,85.9,68.3,29.86,SE,145,1.5,4.7,56,0.00,,,0.00,WUHU216HW,2013-06-25 18:25:00,
2013-06-25 14:30:00,86.2,67.1,29.85,WSW,240,2.7,4.5,53,0.00,,,0.00,WUHU216HW,2013-06-25 18:30:00,
2013-06-25 14:35:00,85.9,67.2,29.85,South,178,2.3,3.6,54,0.00,,,0.00,WUHU216HW,2013-06-25 18:35:00,
2013-06-25 14:40:00,85.5,67.5,29.85,SW,231,2.3,3.4,55,0.00,,,0.00,WUHU216HW,2013-06-25 18:40:00,
2013-06-25 14:45:00,85.9,68.3,29.85,SSW,203,1.3,3.4,56,0.00,,,0.00,WUHU216HW,2013-06-25 18:45:00,
2013-06-25 14:50:00,85.5,67.0,29.85,South,181,1.8,3.6,54,0.00,,,0.00,WUHU216HW,2013-06-25 18:50:00,
2013-06-25 14:55:00,85.1,67.1,29.85,South,180,1.1,3.6,55,0.00,,,0.00,WUHU216HW,2013-06-25 18:55:00,
2013-06-25 15:00:00,84.8,67.3,29.85,SSE,165,2.4,2.9,56,0.00,,,0.00,WUHU216HW,2013-06-25 19:00:00,
2013-06-25 15:05:00,83.9,65.4,29.84,SSW,203,2.7,3.8,54,0.00,,,0.00,WUHU216HW,2013-06-25 19:05:00,
2013-06-25 15:10:00,83.2,65.3,29.84,SW,234,1.9,3.8,55,0.00,,,0.00,WUHU216HW,2013-06-25 19:10:00,
2013-06-25 15:15:00,82.6,66.2,29.84,SSE,158,1.1,2.2,58,0.00,,,0.00,WUHU216HW,2013-06-25 19:15:00,
2013-06-25 15:20:00,82.3,66.0,29.84,South,180,1.8,3.6,58,0.00,,,0.00,WUHU216HW,2013-06-25 19:20:00,
2013-06-25 15:25:00,82.1,65.8,29.84,South,180,2.5,3.6,58,0.00,,,0.00,WUHU216HW,2013-06-25 19:25:00,
2013-06-25 15:30:00,81.7,64.9,29.84,SSE,158,3.6,3.6,57,0.00,,,0.00,WUHU216HW,2013-06-25 19:30:00,
2013-06-25 15:35:00,81.7,65.4,29.84,South,187,2.3,3.6,58,0.00,,,0.00,WUHU216HW,2013-06-25 19:35:00,
2013-06-25 15:40:00,81.4,65.6,29.84,SSW,196,1.7,2.9,59,0.00,,,0.00,WUHU216HW,2013-06-25 19:40:00,
2013-06-25 15:45:00,81.0,65.4,29.84,WSW,238,1.6,2.5,59,0.00,,,0.00,WUHU216HW,2013-06-25 19:45:00,
2013-06-25 15:50:00,81.0,65.9,29.84,South,180,0.9,2.9,60,0.00,,,0.00,WUHU216HW,2013-06-25 19:50:00,
2013-06-25 15:55:00,80.6,65.5,29.84,SSW,201,1.3,2.9,60,0.00,,,0.00,WUHU216HW,2013-06-25 19:55:00,
2013-06-25 16:00:00,80.5,65.8,29.84,West,270,1.6,2.2,61,0.00,,,0.00,WUHU216HW,2013-06-25 20:00:00,
2013-06-25 16:05:00,80.3,65.6,29.84,ESE,113,0.6,2.7,61,0.00,,,0.00,WUHU216HW,2013-06-25 20:05:00,
2013-06-25 16:10:00,80.3,66.1,29.84,WSW,248,0.2,2.7,62,0.00,,,0.00,WUHU216HW,2013-06-25 20:10:00,
2013-06-25 16:15:00,80.3,66.5,29.84,SW,225,0.4,1.1,63,0.00,,,0.00,WUHU216HW,2013-06-25 20:15:00,
2013-06-25 16:20:00,80.1,66.3,29.84,WSW,248,0.7,1.1,63,0.00,,,0.00,WUHU216HW,2013-06-25 20:20:00,
2013-06-25 16:25:00,79.9,66.6,29.84,WSW,248,0.0,0.7,64,0.00,,,0.00,WUHU216HW,2013-06-25 20:25:00,
2013-06-25 16:30:00,79.6,66.3,29.84,WSW,248,0.0,0.7,64,0.00,,,0.00,WUHU216HW,2013-06-25 20:30:00,
2013-06-25 16:35:00,79.2,66.9,29.85,SW,225,0.2,0.2,66,0.00,,,0.00,WUHU216HW,2013-06-25 20:35:00,
2013-06-25 16:40:00,78.5,67.1,29.84,SSW,203,2.5,2.5,68,0.00,,,0.00,WUHU216HW,2013-06-25 20:40:00,
2013-06-25 16:45:00,75.8,66.9,29.86,SSW,206,2.8,4.9,74,0.11,,,0.11,WUHU216HW,2013-06-25 20:45:00,
2013-06-25 16:50:00,72.5,64.5,29.89,NW,319,2.8,4.9,76,0.23,,,0.23,WUHU216HW,2013-06-25 20:50:00,
2013-06-25 16:55:00,69.8,63.0,29.87,North,0,0.8,4.5,79,0.34,,,0.34,WUHU216HW,2013-06-25 20:55:00,
2013-06-25 17:00:00,69.3,62.1,29.87,NNW,338,0.4,1.1,78,0.41,,,0.41,WUHU216HW,2013-06-25 21:00:00,
2013-06-25 17:05:00,68.9,62.6,29.87,NNW,338,0.4,1.3,80,0.46,,,0.46,WUHU216HW,2013-06-25 21:05:00,
2013-06-25 17:10:00,68.8,62.4,29.86,NNW,338,1.1,1.3,80,0.52,,,0.52,WUHU216HW,2013-06-25 21:10:00,
2013-06-25 17:15:00,68.8,62.7,29.86,WSW,248,0.7,1.1,81,0.54,,,0.54,WUHU216HW,2013-06-25 21:15:00,
2013-06-25 17:20:00,68.9,62.9,29.86,South,180,1.4,1.6,81,0.54,,,0.54,WUHU216HW,2013-06-25 21:20:00,
2013-06-25 17:25:00,69.3,63.2,29.85,NNW,338,0.9,1.6,81,0.54,,,0.54,WUHU216HW,2013-06-25 21:25:00,
2013-06-25 17:30:00,69.5,63.0,29.84,NW,315,0.4,1.3,80,0.54,,,0.54,WUHU216HW,2013-06-25 21:30:00,
2013-06-25 17:35:00,69.5,63.7,29.84,WSW,248,1.0,1.1,82,0.54,,,0.54,WUHU216HW,2013-06-25 21:35:00,
2013-06-25 17:40:00,69.7,63.9,29.84,SW,225,1.1,1.1,82,0.54,,,0.54,WUHU216HW,2013-06-25 21:40:00,
2013-06-25 17:45:00,69.7,63.2,29.84,SW,225,0.9,1.3,80,0.39,,,0.54,WUHU216HW,2013-06-25 21:45:00,
2013-06-25 17:50:00,69.5,63.0,29.83,West,270,0.3,1.3,80,0.29,,,0.54,WUHU216HW,2013-06-25 21:50:00,
2013-06-25 17:55:00,69.5,63.0,29.84,West,270,0.0,0.9,80,0.18,,,0.54,WUHU216HW,2013-06-25 21:55:00,
2013-06-25 18:00:00,69.3,63.2,29.84,West,278,0.6,0.7,81,0.12,,,0.54,WUHU216HW,2013-06-25 22:00:00,
2013-06-25 18:05:00,69.1,63.4,29.84,WNW,293,0.0,0.7,82,0.05,,,0.54,WUHU216HW,2013-06-25 22:05:00,
2013-06-25 18:10:00,68.4,63.4,29.86,South,180,5.1,5.1,84,0.02,,,0.54,WUHU216HW,2013-06-25 22:10:00,
2013-06-25 18:15:00,67.7,63.4,29.88,South,178,3.3,5.1,86,0.03,,,0.57,WUHU216HW,2013-06-25 22:15:00,
2013-06-25 18:20:00,67.3,63.0,29.88,SSW,203,1.6,6.3,86,0.14,,,0.68,WUHU216HW,2013-06-25 22:20:00,
2013-06-25 18:25:00,67.1,62.8,29.86,SSE,164,1.3,6.3,86,0.18,,,0.72,WUHU216HW,2013-06-25 22:25:00,
2013-06-25 18:30:00,67.0,62.7,29.86,WSW,248,1.6,2.0,86,0.21,,,0.75,WUHU216HW,2013-06-25 22:30:00,
2013-06-25 18:35:00,67.3,62.6,29.85,NW,315,0.4,2.0,85,0.23,,,0.77,WUHU216HW,2013-06-25 22:35:00,
2013-06-25 18:40:00,67.3,62.6,29.85,NW,315,0.0,1.1,85,0.24,,,0.78,WUHU216HW,2013-06-25 22:40:00,
2013-06-25 18:45:00,67.3,62.6,29.85,NW,315,0.4,0.4,85,0.24,,,0.78,WUHU216HW,2013-06-25 22:45:00,
2013-06-25 18:50:00,67.3,62.6,29.85,NW,315,0.0,0.4,85,0.25,,,0.79,WUHU216HW,2013-06-25 22:50:00,
2013-06-25 18:55:00,67.5,62.8,29.86,NW,315,0.0,0.0,85,0.26,,,0.80,WUHU216HW,2013-06-25 22:55:00,
2013-06-25 19:00:00,67.3,62.6,29.86,SSW,203,1.8,1.8,85,0.27,,,0.81,WUHU216HW,2013-06-25 23:00:00,
2013-06-25 19:05:00,67.1,62.1,29.85,West,270,0.0,1.8,84,0.28,,,0.82,WUHU216HW,2013-06-25 23:05:00,
2013-06-25 19:10:00,67.1,62.5,29.85,West,270,0.0,1.1,85,0.26,,,0.82,WUHU216HW,2013-06-25 23:10:00,
2013-06-25 19:15:00,67.3,62.6,29.84,West,270,0.0,1.1,85,0.17,,,0.82,WUHU216HW,2013-06-25 23:15:00,
2013-06-25 19:20:00,67.3,62.6,29.84,West,270,0.4,0.4,85,0.14,,,0.82,WUHU216HW,2013-06-25 23:20:00,
2013-06-25 19:25:00,67.3,63.0,29.83,West,270,0.0,0.4,86,0.08,,,0.82,WUHU216HW,2013-06-25 23:25:00,
2013-06-25 19:30:00,67.3,63.0,29.83,West,270,0.0,0.4,86,0.06,,,0.82,WUHU216HW,2013-06-25 23:30:00,
2013-06-25 19:35:00,67.3,63.0,29.83,West,270,0.0,0.4,86,0.05,,,0.82,WUHU216HW,2013-06-25 23:35:00,
2013-06-25 19:40:00,67.3,63.0,29.83,West,270,0.0,0.4,86,0.04,,,0.82,WUHU216HW,2013-06-25 23:40:00,
2013-06-25 19:45:00,67.3,63.0,29.84,West,270,0.0,0.0,86,0.04,,,0.82,WUHU216HW,2013-06-25 23:45:00,
2013-06-25 19:50:00,67.3,63.0,29.84,West,270,0.0,0.0,86,0.03,,,0.82,WUHU216HW,2013-06-25 23:50:00,
2013-06-25 19:55:00,67.3,63.3,29.84,West,270,0.0,0.0,87,0.02,,,0.82,WUHU216HW,2013-06-25 23:55:00,
2013-06-25 20:00:00,67.3,63.6,29.83,West,270,0.0,0.0,88,0.01,,,0.82,WUHU216HW,2013-06-26 00:00:00,
2013-06-25 20:05:00,67.1,63.1,29.83,West,270,0.8,1.3,87,0.00,,,0.82,WUHU216HW,2013-06-26 00:05:00,
2013-06-25 20:10:00,67.3,63.0,29.83,West,270,0.0,1.3,86,0.00,,,0.82,WUHU216HW,2013-06-26 00:10:00,
2013-06-25 20:15:00,67.3,63.0,29.83,West,270,0.0,0.0,86,0.00,,,0.82,WUHU216HW,2013-06-26 00:15:00,
2013-06-25 20:20:00,67.3,63.0,29.83,West,270,0.0,0.0,86,0.00,,,0.82,WUHU216HW,2013-06-26 00:20:00,
2013-06-25 20:25:00,67.3,63.0,29.83,West,270,0.0,0.0,86,0.00,,,0.82,WUHU216HW,2013-06-26 00:25:00,
2013-06-25 20:30:00,67.3,62.6,29.83,West,270,0.0,0.0,85,0.00,,,0.82,WUHU216HW,2013-06-26 00:30:00,
2013-06-25 20:35:00,67.3,62.6,29.83,West,270,0.9,0.9,85,0.00,,,0.82,WUHU216HW,2013-06-26 00:35:00,
2013-06-25 20:40:00,67.3,62.6,29.83,West,270,0.0,0.9,85,0.00,,,0.82,WUHU216HW,2013-06-26 00:40:00,
2013-06-25 20:45:00,67.1,62.5,29.83,West,270,0.0,0.7,85,0.00,,,0.82,WUHU216HW,2013-06-26 00:45:00,
2013-06-25 20:50:00,67.1,62.8,29.83,West,270,0.4,0.4,86,0.00,,,0.82,WUHU216HW,2013-06-26 00:50:00,
2013-06-25 20:55:00,67.1,62.8,29.83,West,270,0.4,0.4,86,0.00,,,0.82,WUHU216HW,2013-06-26 00:55:00,
2013-06-25 21:00:00,67.0,62.7,29.83,West,270,0.0,0.4,86,0.00,,,0.82,WUHU216HW,2013-06-26 01:00:00,
2013-06-25 21:05:00,67.0,62.7,29.83,West,270,0.0,0.4,86,0.00,,,0.82,WUHU216HW,2013-06-26 01:05:00,
2013-06-25 21:10:00,67.0,62.7,29.84,West,270,0.4,0.4,86,0.00,,,0.82,WUHU216HW,2013-06-26 01:10:00,
2013-06-25 21:15:00,67.0,62.7,29.84,West,270,0.9,0.9,86,0.00,,,0.82,WUHU216HW,2013-06-26 01:15:00,
2013-06-25 21:20:00,67.0,62.7,29.84,West,270,0.7,0.9,86,0.00,,,0.82,WUHU216HW,2013-06-26 01:20:00,
2013-06-25 21:25:00,67.0,62.3,29.84,West,270,0.0,0.7,85,0.00,,,0.82,WUHU216HW,2013-06-26 01:25:00,
2013-06-25 21:30:00,67.0,62.7,29.84,SSW,203,0.4,0.4,86,0.00,,,0.82,WUHU216HW,2013-06-26 01:30:00,
2013-06-25 21:35:00,67.0,62.7,29.84,West,270,0.2,0.4,86,0.00,,,0.82,WUHU216HW,2013-06-26 01:35:00,
2013-06-25 21:40:00,67.0,62.7,29.84,West,270,1.1,1.1,86,0.00,,,0.82,WUHU216HW,2013-06-26 01:40:00,
2013-06-25 21:45:00,66.8,62.5,29.84,SSE,158,0.0,1.1,86,0.00,,,0.82,WUHU216HW,2013-06-26 01:45:00,
2013-06-25 21:50:00,66.8,62.5,29.84,WSW,248,0.7,1.1,86,0.00,,,0.82,WUHU216HW,2013-06-26 01:50:00,
2013-06-25 21:55:00,66.8,62.5,29.84,SW,225,0.9,1.1,86,0.00,,,0.82,WUHU216HW,2013-06-26 01:55:00,
2013-06-25 22:00:00,66.6,62.3,29.84,WSW,248,1.1,1.3,86,0.00,,,0.82,WUHU216HW,2013-06-26 02:00:00,
2013-06-25 22:05:00,66.6,62.3,29.83,SSW,203,0.6,1.3,86,0.00,,,0.82,WUHU216HW,2013-06-26 02:05:00,
2013-06-25 22:10:00,66.6,62.6,29.84,SW,225,1.1,1.1,87,0.00,,,0.82,WUHU216HW,2013-06-26 02:10:00,
2013-06-25 22:15:00,66.6,62.6,29.83,SW,225,0.3,1.1,87,0.00,,,0.82,WUHU216HW,2013-06-26 02:15:00,
2013-06-25 22:20:00,66.6,62.6,29.83,WSW,248,0.9,1.3,87,0.00,,,0.82,WUHU216HW,2013-06-26 02:20:00,
2013-06-25 22:25:00,66.6,62.6,29.83,WSW,248,0.7,1.3,87,0.00,,,0.82,WUHU216HW,2013-06-26 02:25:00,
2013-06-25 22:30:00,66.6,62.6,29.83,WSW,248,0.9,1.1,87,0.00,,,0.82,WUHU216HW,2013-06-26 02:30:00,
2013-06-25 22:35:00,66.4,62.1,29.83,SW,225,0.6,1.8,86,0.00,,,0.82,WUHU216HW,2013-06-26 02:35:00,
2013-06-25 22:40:00,66.4,62.4,29.84,SW,225,0.8,1.8,87,0.00,,,0.82,WUHU216HW,2013-06-26 02:40:00,
2013-06-25 22:45:00,66.6,62.6,29.83,South,180,1.8,1.8,87,0.00,,,0.82,WUHU216HW,2013-06-26 02:45:00,
2013-06-25 22:50:00,66.6,62.6,29.83,South,180,0.0,1.8,87,0.00,,,0.82,WUHU216HW,2013-06-26 02:50:00,
2013-06-25 22:55:00,66.4,62.4,29.83,South,180,0.7,1.8,87,0.00,,,0.82,WUHU216HW,2013-06-26 02:55:00,
2013-06-25 23:00:00,66.4,62.4,29.83,South,180,0.4,0.7,87,0.00,,,0.82,WUHU216HW,2013-06-26 03:00:00,
2013-06-25 23:05:00,66.4,62.4,29.83,South,180,0.6,0.7,87,0.00,,,0.82,WUHU216HW,2013-06-26 03:05:00,
2013-06-25 23:10:00,66.2,62.2,29.83,South,180,0.3,0.7,87,0.00,,,0.82,WUHU216HW,2013-06-26 03:10:00,
2013-06-25 23:15:00,66.4,62.4,29.83,South,180,0.2,0.7,87,0.00,,,0.82,WUHU216HW,2013-06-26 03:15:00,
2013-06-25 23:20:00,66.4,62.4,29.83,SSW,203,0.8,0.9,87,0.00,,,0.82,WUHU216HW,2013-06-26 03:20:00,
2013-06-25 23:25:00,66.2,62.2,29.82,SSW,203,0.2,0.9,87,0.00,,,0.82,WUHU216HW,2013-06-26 03:25:00,
2013-06-25 23:30:00,66.2,62.2,29.82,SSW,203,0.4,0.9,87,0.00,,,0.82,WUHU216HW,2013-06-26 03:30:00,
2013-06-25 23:35:00,66.2,62.2,29.82,SSW,203,1.1,1.1,87,0.00,,,0.82,WUHU216HW,2013-06-26 03:35:00,
2013-06-25 23:40:00,66.1,62.4,29.82,SSW,203,1.0,1.6,88,0.00,,,0.82,WUHU216HW,2013-06-26 03:40:00,
2013-06-25 23:45:00,66.1,62.4,29.82,SW,225,0.6,1.6,88,0.00,,,0.82,WUHU216HW,2013-06-26 03:45:00,
2013-06-25 23:50:00,65.9,62.2,29.83,SW,225,0.4,1.1,88,0.00,,,0.82,WUHU216HW,2013-06-26 03:50:00,
2013-06-25 23:55:00,65.9,61.8,29.83,SW,225,0.0,1.1,87,0.00,,,0.82,WUHU216HW,2013-06-26 03:55:00,